Location: Brno
(49.2000°N, 16.6330°E)
Time: 22:47:42
(UTC+02:00)

Vanguard 3 - Pass Details

Date: 04 August 2021
Orbit: 510 x 3260 km, 33.3° (Epoch: 22 September)

Event Time Altitude Azimuth Distance (km) Brightness Sun altitude
Rises 22:56:37 0° 272° (W) 6,612 12.3 -18.4°
Reaches altitude 10° 23:01:25 10° 264° (W) 5,858 11.8 -18.8°
Maximum altitude 23:16:44 32° 210° (SSW) 4,582 10.6 -20.0°
Enters shadow 23:25:35 23° 174° (S) 5,000 10.5 -20.6°
